[[{"header":{"parameterUnit":"m.s-1","parameterCategory":1,"la1":30.2991,"la2":30.254,"lo1":-89.0895,"lo2":-89.0444,"dy":0.0017,"dx":0.0017,"nx":28,"ny":28,"refTime":"2024-06-03T09:00:00:Z","depth":0,"parameterNumber":2,"parameterNumberName":"U-component_of_WINDS"},"data":[0,0,0,0,0,0,0,0,0,0,0,0,0,0,0,0,0,0,0,0,0,0,0,0,0,0,0,0,0,0,0,0,0,0,0,0,0,0,0,0,0,0,0,0,0,0,0,0,0,0,0,0,0,0,0,0,0,0,-2.7827,-2.7827,0,-2.7824,-2.7824,-2.7824,-2.7785,-2.7784,-2.7783,-2.7782,-2.778,-2.7781,-2.7782,0,0,0,0,0,0,0,0,0,0,0,0,0,-2.7801,-2.7801,-2.7827,-2.7827,-2.7827,-2.7824,-2.7824,-2.7824,-2.7786,-2.7784,-2.7783,-2.7782,-2.778,-2.7781,-2.7782,0,0,0,0,0,0,0,0,0,0,0,0,0,-2.7806,-2.7802,-2.7827,-2.7807,-2.7806,-2.7824,-2.7824,-2.7824,-2.7786,-2.7784,-2.7783,-2.7781,-2.7779,-2.7781,-2.7782,-2.7819,0,0,-2.7786,-2.7786,0,0,0,0,0,0,0,0,-2.7806,-2.7807,-2.781,-2.7809,-2.7807,-2.7804,-2.7814,-2.7822,-2.7786,-2.7793,-2.7782,-2.7781,-2.7789,-2.7789,-2.7792,-2.7819,-2.7819,-2.7786,-2.7787,-2.7787,-2.7787,0,0,0,0,0,0,0,-2.7806,-2.7807,-2.7826,-2.781,-2.7808,-2.7799,-2.7798,-2.7815,-2.7799,-2.7793,-2.779,-2.779,-2.7788,-2.7791,-2.7792,-2.7819,-2.7786,-2.7787,-2.7788,-2.7788,-2.7876,-2.7878,0,0,0,0,0,0,-2.7808,-2.7807,-2.7826,-2.7826,-2.7803,-2.7801,-2.78,-2.7806,-2.7799,-2.7797,-2.7791,-2.7788,-2.7789,-2.779,-2.7791,-2.7834,-2.7787,-2.7788,-2.7789,-2.7875,-2.7877,-2.7878,0,0,0,0,0,0,-2.7808,-2.781,-2.7826,-2.7816,-2.7817,-2.7803,-2.781,-2.7807,-2.781,-2.7798,-2.7795,-2.7797,-2.7788,-2.779,-2.7812,-2.7833,-2.7789,-2.779,-2.7873,-2.7875,-2.7877,-2.792,0,0,0,0,0,0,-2.7807,-2.781,-2.7824,-2.7816,-2.7818,-2.7847,-2.7811,-2.7808,-2.7812,-2.7808,-2.7803,-2.7801,-2.7787,-2.7811,-2.7814,-2.7834,-2.7791,-2.7871,-2.7874,-2.7877,-2.7917,-2.7924,-2.793,0,0,0,0,0,-2.7806,-2.7836,-2.7824,-2.7827,-2.7834,-2.7848,-2.7849,-2.7833,-2.7814,-2.7828,-2.782,-2.7801,-2.7831,-2.7813,-2.7816,-2.7838,-2.7869,-2.7873,-2.7876,-2.7914,-2.7922,-2.7929,0,0,0,0,0,0,-2.7846,-2.7834,-2.7822,-2.785,-2.785,-2.7841,-2.7858,-2.7842,-2.7848,-2.7844,-2.7824,-2.7823,-2.7849,-2.7846,-2.7826,-2.7874,-2.7847,-2.7851,-2.7874,-2.7882,-2.7889,-2.7888,-2.7792,0,0,0,0,0,-2.7858,-2.787,-2.7859,-2.7885,-2.7886,-2.7872,-2.7878,-2.7865,-2.7865,-2.7865,-2.7859,-2.786,-2.7869,-2.7876,-2.7884,-2.7917,-2.7915,-2.7933,-2.794,-2.7945,-2.7948,-2.7965,-2.7973,-2.789,-2.789,-2.789,0,0,-2.7883,-2.7878,-2.7886,-2.7893,-2.7892,-2.7904,-2.7872,-2.7887,-2.7897,-2.7867,-2.7888,-2.7884,-2.7883,-2.7911,-2.7923,-2.7909,-2.7971,-2.795,-2.7954,-2.7954,-2.797,-2.7978,-2.7985,-2.7892,-2.7892,-2.7892,0,0,-2.7934,-2.7932,-2.7953,-2.7953,-2.7952,-2.7942,-2.7948,-2.7942,-2.7938,-2.7959,-2.7937,-2.7948,-2.7965,-2.7966,-2.7968,-2.8022,-2.8004,-2.8025,-2.8058,-2.8075,-2.8081,-2.8087,-2.8105,-2.8112,-2.8029,-2.8029,-2.8029,0,-2.7965,-2.7983,-2.7966,-2.7982,-2.7986,-2.796,-2.7982,-2.7983,-2.7984,-2.7987,-2.7972,-2.7993,-2.7991,-2.8019,-2.8032,-2.8035,-2.804,-2.8025,-2.8082,-2.8087,-2.8092,-2.811,-2.8117,-2.8032,-2.8031,-2.8031,-2.8031,0,-2.8021,-2.8034,-2.8051,-2.8053,-2.8059,-2.8078,-2.8065,-2.8073,-2.8061,-2.8053,-2.8075,-2.8072,-2.8079,-2.8085,-2.8073,-2.8111,-2.8103,-2.8085,-2.8058,-2.8103,-2.8119,-2.8125,-2.8035,-2.8034,-2.8034,-2.8033,0,0,-2.8095,-2.8089,-2.8095,-2.8096,-2.8094,-2.8103,-2.8122,-2.8129,-2.8136,-2.8139,-2.8153,-2.8169,-2.8153,-2.8156,-2.8144,-2.8159,-2.8201,-2.814,-2.8139,-2.815,-2.8242,-2.8255,-2.8262,-2.819,-2.8192,-2.8193,-2.8242,0,-2.8144,-2.8174,-2.816,-2.8192,-2.8204,-2.818,-2.8196,-2.8197,-2.8191,-2.8201,-2.8195,-2.8206,-2.8184,-2.8186,-2.82,-2.8193,-2.8219,-2.819,-2.8203,-2.8204,-2.8203,-2.8271,-2.8284,-2.833,-2.8248,-2.8249,-2.825,0,-2.8204,-2.8209,-2.8242,-2.8238,-2.8243,-2.8257,-2.8263,-2.8272,-2.8273,-2.8268,-2.8272,-2.8257,-2.8275,-2.8249,-2.8274,-2.8254,-2.8259,-2.8257,-2.8259,-2.8258,-2.8229,-2.8271,-2.8345,-2.8352,-2.826,-2.8259,-2.8258,0,-2.8254,-2.827,-2.8291,-2.8293,-2.8289,-2.8299,-2.8298,-2.8297,-2.8303,-2.8308,-2.8311,-2.8319,-2.8323,-2.8329,-2.8317,-2.83,-2.8343,-2.8316,-2.8339,-2.8339,-2.8348,-2.8347,-2.8423,-2.8354,-2.8354,-2.8354,-2.8353,0,-2.8309,-2.833,-2.8313,-2.8327,-2.835,-2.8334,-2.8357,-2.8354,-2.8353,-2.8366,-2.8347,-2.8359,-2.8343,-2.8354,-2.8345,-2.8366,-2.8368,-2.8364,-2.8361,-2.8365,-2.8366,-2.8367,-2.8363,-2.8355,-2.8355,-2.8355,-2.8354,0,-2.8368,-2.8358,-2.838,-2.8374,-2.8374,-2.8391,-2.8386,-2.8398,-2.8392,-2.8408,-2.8411,-2.8401,-2.8412,-2.8401,-2.8413,-2.8407,-2.8435,-2.8428,-2.8435,-2.8432,-2.8455,-2.8453,-2.8533,-2.8542,-2.8469,-2.847,-2.847,0,-2.8403,-2.8419,-2.8415,-2.8422,-2.8422,-2.8433,-2.8439,-2.8425,-2.8431,-2.8434,-2.8446,-2.8456,-2.8463,-2.8483,-2.8477,-2.8485,-2.8478,-2.8505,-2.8479,-2.8482,-2.8477,-2.8475,-2.8477,-2.851,-2.8511,-2.8512,-2.8512,0,-2.8467,-2.8461,-2.8469,-2.8476,-2.8483,-2.8488,-2.8492,-2.8499,-2.8484,-2.8493,-2.8504,-2.851,-2.8522,-2.8532,-2.8539,-2.8538,-2.8523,-2.8521,-2.8526,-2.853,-2.8532,-2.853,-2.8448,-2.8519,-2.8518,-2.8518,-2.8517,-2.8517,-2.8514,-2.8526,-2.8526,-2.8536,-2.8538,-2.8541,-2.8553,-2.8548,-2.8557,-2.8565,-2.8557,-2.8571,-2.8572,-2.858,-2.8581,-2.8592,-2.858,-2.8588,-2.859,-2.8592,-2.8595,-2.8532,-2.8593,-2.8593,-2.8593,-2.8593,-2.8593,0,-2.8575,-2.8574,-2.8584,-2.8589,-2.8598,-2.8583,-2.8587,-2.8594,-2.8607,-2.8609,-2.8617,-2.863,-2.8641,-2.8636,-2.8645,-2.8654,-2.8648,-2.8657,-2.8656,-2.8656,-2.8605,-2.8599,-2.8662,-2.8662,-2.8662,-2.8662,-2.8662,-2.8662,-2.8608,-2.8629,-2.8623,-2.8645,-2.8643,-2.8657,-2.866,-2.8664,-2.8665,-2.8681,-2.869,-2.8687,-2.8686,-2.8695,-2.8704,-2.8702,-2.8706,-2.8717,-2.8713,-2.8666,-2.8659,-2.8652,-2.8646,-2.8719,-2.8719,-2.8762,-2.8763,-2.8763]},{"header":{"parameterUnit":"m.s-1","parameterCategory":1,"la1":30.2991,"la2":30.254,"lo1":-89.0895,"lo2":-89.0444,"dy":0.0017,"dx":0.0017,"nx":28,"ny":28,"refTime":"2024-06-03T09:00:00:Z","depth":0,"parameterNumber":3,"parameterNumberName":"V-component_of_WINDS"},"data":[0,0,0,0,0,0,0,0,0,0,0,0,0,0,0,0,0,0,0,0,0,0,0,0,0,0,0,0,0,0,0,0,0,0,0,0,0,0,0,0,0,0,0,0,0,0,0,0,0,0,0,0,0,0,0,0,0,0,4.7369,4.7369,0,4.7432,4.7433,4.7433,4.7413,4.7411,4.741,4.7409,4.747,4.7473,4.7476,0,0,0,0,0,0,0,0,0,0,0,0,0,4.7227,4.723,4.7368,4.7369,4.737,4.7432,4.7433,4.7433,4.7413,4.7411,4.741,4.7408,4.7469,4.7472,4.7476,0,0,0,0,0,0,0,0,0,0,0,0,0,4.7289,4.723,4.7368,4.7367,4.7368,4.7432,4.7433,4.7434,4.7413,4.7411,4.7409,4.7407,4.7468,4.7472,4.7476,4.7544,0,0,4.749,4.7492,0,0,0,0,0,0,0,0,4.7285,4.7294,4.7367,4.7368,4.7368,4.7412,4.7405,4.747,4.7414,4.7396,4.7409,4.7406,4.7452,4.7458,4.7474,4.7547,4.7549,4.749,4.7493,4.7495,4.7496,0,0,0,0,0,0,0,4.7281,4.7291,4.7393,4.7368,4.7369,4.7363,4.7369,4.7417,4.7435,4.7397,4.7396,4.7404,4.7452,4.747,4.7475,4.755,4.749,4.7494,4.7496,4.7498,4.7681,4.7683,0,0,0,0,0,0,4.7277,4.7288,4.7391,4.7395,4.7321,4.7367,4.7374,4.74,4.7434,4.7437,4.7406,4.7403,4.7463,4.747,4.7477,4.7559,4.7495,4.7499,4.7501,4.7679,4.7682,4.7684,0,0,0,0,0,0,4.7274,4.7286,4.7389,4.7341,4.7354,4.7372,4.7401,4.7403,4.742,4.744,4.7443,4.7421,4.7462,4.7471,4.7528,4.756,4.7501,4.7504,4.7676,4.768,4.7683,4.7722,0,0,0,0,0,0,4.727,4.7285,4.7312,4.7342,4.7357,4.7439,4.7403,4.7405,4.7428,4.7425,4.7455,4.7458,4.7461,4.7521,4.7532,4.7565,4.7508,4.7673,4.7678,4.7682,4.7717,4.7726,4.7733,0,0,0,0,0,4.7265,4.7319,4.7313,4.7326,4.739,4.7441,4.7449,4.7453,4.7431,4.7457,4.747,4.7457,4.7555,4.7527,4.7539,4.7574,4.7671,4.7677,4.7682,4.7714,4.7724,4.7733,0,0,0,0,0,0,4.7291,4.7323,4.7317,4.7383,4.741,4.7438,4.7471,4.7463,4.7496,4.7492,4.7493,4.75,4.7558,4.7572,4.754,4.7641,4.761,4.7618,4.763,4.764,4.7648,4.7644,4.7511,0,0,0,0,0,4.7305,4.7345,4.737,4.7426,4.744,4.7453,4.7475,4.7476,4.7503,4.7514,4.7531,4.7557,4.7594,4.7618,4.7652,4.7719,4.7725,4.7749,4.7757,4.7763,4.777,4.7806,4.7817,4.7701,4.7701,4.7701,0,0,4.7333,4.7356,4.738,4.7432,4.7452,4.7493,4.7463,4.7506,4.7536,4.752,4.7575,4.7589,4.7617,4.768,4.7708,4.7693,4.7804,4.777,4.7775,4.7778,4.7813,4.7824,4.7834,4.7704,4.7704,4.7703,0,0,4.7405,4.7427,4.7476,4.7497,4.753,4.7538,4.755,4.7579,4.7588,4.7644,4.7633,4.7667,4.773,4.7752,4.7771,4.7852,4.7841,4.7863,4.7903,4.7939,4.7948,4.7956,4.7985,4.7996,4.7869,4.7869,4.7869,0,4.7436,4.7498,4.7501,4.7547,4.7569,4.7558,4.7607,4.7628,4.7669,4.7685,4.7667,4.7747,4.7765,4.7833,4.7852,4.7868,4.7881,4.7859,4.7947,4.7955,4.7963,4.799,4.8001,4.7872,4.7871,4.7871,4.7871,0,4.7534,4.7577,4.7612,4.7654,4.7681,4.7728,4.7738,4.7764,4.7762,4.7773,4.7829,4.7851,4.789,4.7906,4.7904,4.7973,4.7963,4.7946,4.7915,4.7976,4.8002,4.8013,4.7875,4.7874,4.7874,4.7873,0,0,4.7624,4.7669,4.7682,4.7701,4.7736,4.7768,4.7814,4.7854,4.7876,4.7905,4.7944,4.7998,4.7983,4.8005,4.8005,4.8036,4.8099,4.8016,4.8016,4.803,4.8176,4.8189,4.8201,4.8092,4.8094,4.8096,4.8174,0,4.77,4.7783,4.7788,4.7862,4.7901,4.7891,4.7931,4.7957,4.7967,4.8001,4.8013,4.8051,4.8028,4.8042,4.8072,4.8085,4.8128,4.8079,4.8127,4.8129,4.8121,4.8215,4.8228,4.8301,4.8184,4.8186,4.8187,0,4.7799,4.7833,4.7912,4.7941,4.7958,4.7994,4.8031,4.8064,4.8092,4.8098,4.8123,4.8119,4.8165,4.8132,4.8196,4.8162,4.8182,4.8191,4.8194,4.8199,4.8162,4.8222,4.8324,4.8335,4.8203,4.8202,4.8201,0,4.7858,4.7922,4.7978,4.7995,4.8031,4.8056,4.8072,4.8099,4.8122,4.8154,4.8169,4.8205,4.8225,4.8253,4.8259,4.8234,4.8323,4.829,4.8328,4.8328,4.8347,4.8346,4.8454,4.836,4.8359,4.8359,4.8359,0,4.7942,4.799,4.8005,4.8039,4.8093,4.8098,4.8151,4.8165,4.8189,4.8225,4.8217,4.8251,4.8256,4.8291,4.8296,4.8348,4.8357,4.8362,4.8363,4.8363,4.8362,4.8376,4.8371,4.8362,4.8361,4.8361,4.836,0,4.8017,4.8028,4.8088,4.8118,4.8126,4.8165,4.819,4.8222,4.8232,4.8278,4.8289,4.8304,4.8345,4.8353,4.8401,4.8404,4.8466,4.8461,4.8457,4.8457,4.8494,4.8491,4.8615,4.8632,4.8526,4.8527,4.8528,0,4.807,4.8107,4.8141,4.8165,4.8183,4.8222,4.8246,4.8252,4.8278,4.8313,4.8341,4.8381,4.8413,4.8479,4.8493,4.853,4.8526,4.8567,4.8531,4.8531,4.8527,4.8525,4.8529,4.8574,4.8575,4.8576,4.8577,0,4.8163,4.8167,4.8203,4.8242,4.8271,4.8301,4.833,4.835,4.8359,4.8388,4.8431,4.8456,4.8505,4.8545,4.8581,4.8596,4.8588,4.8588,4.8599,4.86,4.8596,4.8598,4.8476,4.8585,4.8584,4.8584,4.8583,4.8583,4.8228,4.8261,4.8291,4.8331,4.8354,4.8381,4.8413,4.8427,4.8463,4.8505,4.8505,4.8551,4.8578,4.8627,4.8644,4.8679,4.8666,4.8682,4.8686,4.869,4.8693,4.859,4.8686,4.8686,4.8686,4.8685,4.8685,0,4.8321,4.834,4.8377,4.8418,4.845,4.8441,4.8472,4.8499,4.854,4.8566,4.8599,4.8647,4.8685,4.8703,4.8741,4.8766,4.8763,4.8776,4.8774,4.8778,4.8703,4.869,4.8778,4.8778,4.8778,4.8778,4.8778,4.8778,4.8373,4.8429,4.8437,4.8503,4.852,4.8567,4.8585,4.861,4.8631,4.8686,4.8718,4.873,4.8753,4.8793,4.8827,4.8832,4.8846,4.886,4.8863,4.8792,4.8783,4.8774,4.8762,4.8863,4.8864,4.8935,4.8936,4.8936]}]]